Weather History for St. Johns, AZ

Change the Weather History Date:

Tuesday, November 20, 2012

  Actual Average (KSOW) Record (KSOW)
Temperature  
Mean Temperature 40 °F -  
Max Temperature 62 °F 52 °F 68 °F (1966)
Min Temperature 19 °F 31 °F 13 °F (1969)
Degree Days  
Heating Degree Days 24    
Moisture  
Dew Point 15 °F    
Average Humidity 38    
Maximum Humidity 73    
Minimum Humidity 9    
Precipitation  
Precipitation 0.00 in - - ()
Sea Level Pressure  
Sea Level Pressure 30.21 in    
Wind  
Wind Speed 2 mph (NNW)    
Max Wind Speed 8 mph    
Max Gust Speed -    
Visibility 10 miles    
Events      
Averages and records for this station are not official NWS values.
T = Trace of Precipitation, MM = Missing Value Source: NWS Daily Summary

Daily Weather History Graph

Daily Weather History Graph

Search for Another Location

Airport:

Trip Planner

Search our weather history database for the weather conditions in past years. The results will help you decide how hot, cold, wet, or windy it might be!

Date:

Astronomy

Nov. 20, 2012 Rise Set
Actual Time 6:56 AM MST 5:09 PM MST
Civil Twilight 6:29 AM MST 5:37 PM MST
Nautical Twilight 5:58 AM MST 6:07 PM MST
Astronomical Twilight 5:28 AM MST 6:37 PM MST
Moon 12:41 PM MST (11/20) No Moon Set
Length of Visible Light 11h 07m
Length of Day
10h 13m
First Quarter, 52% of the Moon is Illuminated
Nov 20
First Quarter
Nov 28
Full
Dec 6
Last Quarter
Dec 13
New
Dec 19
First Quarter

Hourly Weather History & Observations

Time (MST) Temp. Windchill Dew Point Humidity Pressure Visibility Wind Dir Wind Speed Gust Speed Precip Events Conditions
12:54 AM 26.1 °F - 14.0 °F 60% 30.28 in 10.0 mi Calm Calm - N/A   Clear
1:54 AM 28.0 °F - 16.0 °F 61% 30.26 in 10.0 mi Calm Calm - N/A   Clear
2:54 AM 32.0 °F - 18.0 °F 56% 30.25 in 10.0 mi Calm Calm - N/A   Clear
3:54 AM 23.0 °F - 12.9 °F 65% 30.27 in 10.0 mi Calm Calm - N/A   Clear
4:54 AM 24.1 °F - 15.1 °F 69% 30.28 in 10.0 mi Calm Calm - N/A   Clear
5:54 AM 21.0 °F - 12.0 °F 68% 30.32 in 8.0 mi Calm Calm - N/A   Clear
6:54 AM 24.1 °F - 15.1 °F 69% 30.36 in 9.0 mi Calm Calm - N/A   Clear
7:54 AM 28.0 °F - 16.0 °F 61% 30.35 in 10.0 mi Calm Calm - N/A   Clear
8:54 AM 34.0 °F - 17.1 °F 50% 30.33 in 10.0 mi Calm Calm - N/A   Clear
9:54 AM 43.0 °F - 19.9 °F 40% 30.29 in 10.0 mi Calm Calm - N/A   Clear
10:54 AM 54.0 °F - 21.9 °F 29% 30.23 in 10.0 mi NNE 3.5 mph - N/A   Clear
11:54 AM 62.1 °F - 19.9 °F 20% 30.16 in 10.0 mi Variable 4.6 mph - N/A   Clear
12:54 PM 64.0 °F - 17.1 °F 16% 30.14 in 10.0 mi NE 5.8 mph - N/A   Clear
1:54 PM 66.9 °F - 12.0 °F 12% 30.09 in 10.0 mi NE 8.1 mph - N/A   Clear
2:54 PM 66.0 °F - 10.0 °F 11% 30.06 in 10.0 mi NNW 3.5 mph - N/A   Clear
3:54 PM 66.0 °F - 6.1 °F 9% 30.09 in 10.0 mi NW 5.8 mph - N/A   Clear
4:54 PM 61.0 °F - 7.0 °F 12% 30.11 in 10.0 mi NW 6.9 mph - N/A   Clear
5:54 PM 46.9 °F - 10.9 °F 23% 30.18 in 10.0 mi WNW 5.8 mph - N/A   Clear
6:54 PM 48.9 °F - 10.9 °F 22% 30.17 in 10.0 mi Calm Calm - N/A   Clear
7:54 PM 45.0 °F 41.8 °F 10.0 °F 24% 30.19 in 10.0 mi South 5.8 mph - N/A   Clear
8:54 PM 46.0 °F 44.8 °F 12.0 °F 25% 30.17 in 10.0 mi South 3.5 mph - N/A   Clear
9:54 PM 43.0 °F 39.5 °F 12.9 °F 30% 30.15 in 10.0 mi South 5.8 mph - N/A   Clear
10:54 PM 35.1 °F - 12.0 °F 39% 30.14 in 10.0 mi Calm Calm - N/A   Clear
11:54 PM 34.0 °F - 12.0 °F 40% 30.12 in 10.0 mi Calm Calm - N/A   Clear